ORBCOMM FM27

Last updated on Wed Aug 19 2026 00:03:10 GMT+0000 (Coordinated Universal Time)

1 25481U 98053G 26230.45373253 .00000663 00000+0 25760-3 0 9997 2 25481 45.0058 39.5817 0001342 171.1038 188.9835 14.39236667459207
UTC large
Height (km)
Speed (km/s)
/
Latitude / Longitude
Inclination (degrees)
Orbital Period (minutes)
Azimuth
Elevation
Range (km)
Doppler Factor

Next 0 passes for location: London (51.5072 / 0.1276)

No passes found over London.
ORBCOMM FM27